Вернуться в каталог

COSMOS 2523

АктивенНавигацияSSO
NORAD 42986·PAYLOAD·🇷🇺 Russia

Запущен Jun 23, 2017 с Plesetsk Cosmodrome

Loading…

Ближайшие Пролёты (ближайшие 24 часа)

TLE

СвежийSource: Space-Track

Эпоха: Sep 14, 2026, 14:06 UTC

1 42986U 17037E   26257.58811043  .00001725  00000-0  15383-3 0  9997
2 42986  97.5002 266.8824 0064805 290.3055  69.1210 14.95686775482323

Отслеживайте COSMOS 2523 в реальном времени с AllMySat

Download on the App Store